Time,TemperatureF,DewpointF,PressureIn,WindDirection,WindDirectionDegrees,WindSpeedMPH,WindSpeedGustMPH,Humidity,HourlyPrecipIn,Conditions,Clouds,dailyrainin,SoftwareType,DateUTC
2013-07-20 00:08:00,72.9,66.4,29.21,West,270,0.0,-999.0,80,-99.99,,,0.00,Acu-Link.com,2013-07-20 05:08:00,
2013-07-20 00:23:00,72.7,66.2,29.21,SE,135,0.0,-999.0,80,-99.99,,,0.00,Acu-Link.com,2013-07-20 05:23:00,
2013-07-20 00:39:00,72.0,65.8,29.22,WNW,292,0.0,-999.0,81,-99.99,,,0.00,Acu-Link.com,2013-07-20 05:39:00,
2013-07-20 00:54:00,71.8,66.0,29.22,West,270,0.0,-999.0,82,-99.99,,,0.00,Acu-Link.com,2013-07-20 05:54:00,
2013-07-20 01:09:00,71.6,65.8,29.23,WNW,292,0.0,-999.0,82,-99.99,,,0.00,Acu-Link.com,2013-07-20 06:09:00,
2013-07-20 01:24:00,70.9,65.8,29.22,NNW,337,0.0,-999.0,84,-99.99,,,0.00,Acu-Link.com,2013-07-20 06:24:00,
2013-07-20 01:39:00,70.5,65.4,29.22,North,0,0.0,-999.0,84,-99.99,,,0.00,Acu-Link.com,2013-07-20 06:39:00,
2013-07-20 01:54:00,70.3,65.2,29.22,ESE,112,0.0,-999.0,84,-99.99,,,0.00,Acu-Link.com,2013-07-20 06:54:00,
2013-07-20 02:09:00,69.6,65.2,29.22,North,0,0.0,-999.0,86,-99.99,,,0.00,Acu-Link.com,2013-07-20 07:09:00,
2013-07-20 02:25:00,68.5,67.3,29.22,NW,315,0.0,-999.0,96,-99.99,,,0.00,Acu-Link.com,2013-07-20 07:25:00,
2013-07-20 02:40:00,68.0,67.4,29.22,NW,315,0.0,-999.0,98,-99.99,,,0.00,Acu-Link.com,2013-07-20 07:40:00,
2013-07-20 02:55:00,68.2,67.6,29.22,WNW,292,0.0,-999.0,98,-99.99,,,0.00,Acu-Link.com,2013-07-20 07:55:00,
2013-07-20 03:12:00,68.4,67.8,29.21,WSW,247,0.0,-999.0,98,-99.99,,,0.00,Acu-Link.com,2013-07-20 08:12:00,
2013-07-20 03:27:00,68.2,67.6,29.21,NNW,337,0.0,-999.0,98,-99.99,,,0.00,Acu-Link.com,2013-07-20 08:27:00,
2013-07-20 03:42:00,68.2,67.6,29.21,NNW,337,0.0,-999.0,98,-99.99,,,0.00,Acu-Link.com,2013-07-20 08:42:00,
2013-07-20 03:57:00,68.0,67.4,29.21,North,0,0.0,-999.0,98,-99.99,,,0.00,Acu-Link.com,2013-07-20 08:57:00,
2013-07-20 04:12:00,67.1,66.5,29.20,NNE,22,0.0,-999.0,98,-99.99,,,0.00,Acu-Link.com,2013-07-20 09:12:00,
2013-07-20 04:27:00,65.8,65.2,29.21,SW,225,0.0,-999.0,98,-99.99,,,0.00,Acu-Link.com,2013-07-20 09:27:00,
2013-07-20 04:42:00,64.6,64.0,29.20,West,270,0.0,-999.0,98,-99.99,,,0.00,Acu-Link.com,2013-07-20 09:42:00,
2013-07-20 04:58:00,64.4,63.8,29.21,West,270,0.0,-999.0,98,-99.99,,,0.00,Acu-Link.com,2013-07-20 09:58:00,
2013-07-20 05:13:00,64.0,63.4,29.20,West,270,0.0,-999.0,98,-99.99,,,0.00,Acu-Link.com,2013-07-20 10:13:00,
2013-07-20 05:28:00,63.7,63.1,29.20,SSW,202,0.0,-999.0,98,-99.99,,,0.00,Acu-Link.com,2013-07-20 10:28:00,
2013-07-20 05:43:00,63.1,62.5,29.20,West,270,0.0,-999.0,98,-99.99,,,0.00,Acu-Link.com,2013-07-20 10:43:00,
2013-07-20 05:58:00,62.6,62.0,29.20,SSW,202,0.0,-999.0,98,-99.99,,,0.00,Acu-Link.com,2013-07-20 10:58:00,
2013-07-20 06:13:00,62.1,61.5,29.19,SSW,202,0.0,-999.0,98,-99.99,,,0.00,Acu-Link.com,2013-07-20 11:13:00,
2013-07-20 06:28:00,61.5,60.9,29.20,West,270,0.0,-999.0,98,-99.99,,,0.00,Acu-Link.com,2013-07-20 11:28:00,
2013-07-20 06:43:00,62.1,61.5,29.20,SE,135,0.0,-999.0,98,-99.99,,,0.00,Acu-Link.com,2013-07-20 11:43:00,
2013-07-20 06:58:00,62.4,61.8,29.20,NNE,22,0.0,-999.0,98,-99.99,,,0.00,Acu-Link.com,2013-07-20 11:58:00,
2013-07-20 07:14:00,63.1,62.5,29.20,ESE,112,0.0,-999.0,98,-99.99,,,0.00,Acu-Link.com,2013-07-20 12:14:00,
2013-07-20 07:29:00,65.1,60.8,29.20,South,180,0.0,-999.0,86,-99.99,,,0.00,Acu-Link.com,2013-07-20 12:29:00,
2013-07-20 07:44:00,66.0,61.7,29.21,East,90,0.0,-999.0,86,-99.99,,,0.00,Acu-Link.com,2013-07-20 12:44:00,
2013-07-20 07:59:00,66.7,66.1,29.21,ESE,112,0.0,-999.0,98,-99.99,,,0.00,Acu-Link.com,2013-07-20 12:59:00,
2013-07-20 08:14:00,73.4,72.8,29.22,South,180,0.0,-999.0,98,-99.99,,,0.00,Acu-Link.com,2013-07-20 13:14:00,
2013-07-20 08:29:00,81.0,73.1,29.22,West,270,0.0,-999.0,77,-99.99,,,0.00,Acu-Link.com,2013-07-20 13:29:00,
2013-07-20 08:44:00,86.2,71.1,29.22,NNE,22,0.0,-999.0,61,-99.99,,,0.00,Acu-Link.com,2013-07-20 13:44:00,
2013-07-20 08:59:00,90.5,71.5,29.23,NNE,22,0.0,-999.0,54,-99.99,,,0.00,Acu-Link.com,2013-07-20 13:59:00,
2013-07-20 09:14:00,92.8,69.6,29.23,East,90,0.0,-999.0,47,-99.99,,,0.00,Acu-Link.com,2013-07-20 14:14:00,
2013-07-20 09:29:00,93.6,69.0,29.25,SSE,157,0.0,-999.0,45,-99.99,,,0.00,Acu-Link.com,2013-07-20 14:29:00,
2013-07-20 09:45:00,96.4,68.1,29.26,NE,45,0.0,-999.0,40,-99.99,,,0.00,Acu-Link.com,2013-07-20 14:45:00,
2013-07-20 10:00:00,93.9,69.9,29.26,West,270,0.0,-999.0,46,-99.99,,,0.00,Acu-Link.com,2013-07-20 15:00:00,
2013-07-20 10:15:00,96.6,68.3,29.27,NNE,22,0.0,-999.0,40,-99.99,,,0.00,Acu-Link.com,2013-07-20 15:15:00,
2013-07-20 10:30:00,96.4,68.1,29.26,ESE,112,0.0,-999.0,40,-99.99,,,0.00,Acu-Link.com,2013-07-20 15:30:00,
2013-07-20 10:45:00,95.9,64.6,29.27,South,180,0.0,-999.0,36,-99.99,,,0.00,Acu-Link.com,2013-07-20 15:45:00,
2013-07-20 11:00:00,99.5,66.1,29.27,WNW,292,0.0,-999.0,34,-99.99,,,0.00,Acu-Link.com,2013-07-20 16:00:00,
2013-07-20 11:15:00,101.5,66.1,29.27,SSE,157,0.0,-999.0,32,-99.99,,,0.00,Acu-Link.com,2013-07-20 16:15:00,
2013-07-20 11:30:00,100.8,64.6,29.26,NNE,22,0.0,-999.0,31,-99.99,,,0.00,Acu-Link.com,2013-07-20 16:30:00,
2013-07-20 11:45:00,100.0,62.9,29.27,NNW,337,0.0,-999.0,30,-99.99,,,0.00,Acu-Link.com,2013-07-20 16:45:00,
2013-07-20 12:01:00,100.4,65.1,29.27,NNW,337,0.0,-999.0,32,-99.99,,,0.00,Acu-Link.com,2013-07-20 17:01:00,
2013-07-20 12:16:00,100.0,63.9,29.27,NNW,337,0.0,-999.0,31,-99.99,,,0.00,Acu-Link.com,2013-07-20 17:16:00,
2013-07-20 12:31:00,100.0,62.9,29.27,East,90,0.0,-999.0,30,-99.99,,,0.00,Acu-Link.com,2013-07-20 17:31:00,
2013-07-20 12:46:00,101.1,60.9,29.26,SSE,157,0.0,-999.0,27,-99.99,,,0.00,Acu-Link.com,2013-07-20 17:46:00,
2013-07-20 13:01:00,101.3,62.1,29.25,WSW,247,0.0,-999.0,28,-99.99,,,0.00,Acu-Link.com,2013-07-20 18:01:00,
2013-07-20 13:16:00,103.6,61.9,29.24,NNE,22,0.0,-999.0,26,-99.99,,,0.00,Acu-Link.com,2013-07-20 18:16:00,
2013-07-20 13:31:00,103.3,60.6,29.23,WSW,247,0.0,-999.0,25,-99.99,,,0.00,Acu-Link.com,2013-07-20 18:31:00,
2013-07-20 13:46:00,100.9,62.7,29.22,WNW,292,0.0,-999.0,29,-99.99,,,0.00,Acu-Link.com,2013-07-20 18:46:00,
2013-07-20 14:01:00,99.3,62.3,29.21,ESE,112,0.0,-999.0,30,-99.99,,,0.00,Acu-Link.com,2013-07-20 19:01:00,
2013-07-20 14:17:00,97.5,59.8,29.21,South,180,0.0,-999.0,29,-99.99,,,0.00,Acu-Link.com,2013-07-20 19:17:00,
2013-07-20 14:32:00,98.2,62.3,29.22,NE,45,0.0,-999.0,31,-99.99,,,0.00,Acu-Link.com,2013-07-20 19:32:00,
2013-07-20 14:47:00,99.0,58.1,29.22,East,90,0.0,-999.0,26,-99.99,,,0.00,Acu-Link.com,2013-07-20 19:47:00,
2013-07-20 15:02:00,98.6,57.7,29.23,South,180,0.0,-999.0,26,-99.99,,,0.00,Acu-Link.com,2013-07-20 20:02:00,
2013-07-20 15:17:00,103.1,60.4,29.22,South,180,0.0,-999.0,25,-99.99,,,0.00,Acu-Link.com,2013-07-20 20:17:00,
2013-07-20 15:32:00,103.5,58.4,29.22,SE,135,0.0,-999.0,23,-99.99,,,0.00,Acu-Link.com,2013-07-20 20:32:00,
2013-07-20 15:47:00,102.2,57.3,29.21,SSW,202,0.0,-999.0,23,-99.99,,,0.00,Acu-Link.com,2013-07-20 20:47:00,
2013-07-20 16:02:00,105.4,57.4,29.20,South,180,0.0,-999.0,21,-99.99,,,0.00,Acu-Link.com,2013-07-20 21:02:00,
2013-07-20 16:17:00,103.6,58.5,29.20,South,180,0.0,-999.0,23,-99.99,,,0.00,Acu-Link.com,2013-07-20 21:17:00,
2013-07-20 16:33:00,105.4,57.4,29.20,ENE,67,0.0,-999.0,21,-99.99,,,0.00,Acu-Link.com,2013-07-20 21:33:00,
2013-07-20 16:48:00,99.7,57.5,29.21,South,180,0.0,-999.0,25,-99.99,,,0.00,Acu-Link.com,2013-07-20 21:48:00,
2013-07-20 17:18:00,91.9,62.6,29.19,SW,225,0.0,-999.0,38,-99.99,,,0.00,Acu-Link.com,2013-07-20 22:18:00,
2013-07-20 17:33:00,91.8,63.3,29.18,SSE,157,0.0,-999.0,39,-99.99,,,0.00,Acu-Link.com,2013-07-20 22:33:00,
2013-07-20 17:48:00,91.2,66.2,29.17,South,180,0.0,-999.0,44,-99.99,,,0.00,Acu-Link.com,2013-07-20 22:48:00,
2013-07-20 18:03:00,94.1,64.6,29.17,SW,225,0.0,-999.0,38,-99.99,,,0.00,Acu-Link.com,2013-07-20 23:03:00,
2013-07-20 18:33:00,95.5,59.1,29.17,South,180,0.0,-999.0,30,-99.99,,,0.00,Acu-Link.com,2013-07-20 23:33:00,
2013-07-20 18:49:00,93.6,60.1,29.16,SSW,202,0.0,-999.0,33,-99.99,,,0.00,Acu-Link.com,2013-07-20 23:49:00,
2013-07-20 19:19:00,94.6,62.7,29.18,South,180,0.0,-999.0,35,-99.99,,,0.00,Acu-Link.com,2013-07-21 00:19:00,
2013-07-20 19:34:00,90.7,65.1,29.17,SSE,157,0.0,-999.0,43,-99.99,,,0.00,Acu-Link.com,2013-07-21 00:34:00,
2013-07-20 19:49:00,87.8,65.0,29.18,SSW,202,0.0,-999.0,47,-99.99,,,0.00,Acu-Link.com,2013-07-21 00:49:00,
2013-07-20 20:04:00,84.6,66.1,29.19,South,180,0.0,-999.0,54,-99.99,,,0.00,Acu-Link.com,2013-07-21 01:04:00,
2013-07-20 20:19:00,82.8,66.5,29.19,SW,225,0.0,-999.0,58,-99.99,,,0.00,Acu-Link.com,2013-07-21 01:19:00,
2013-07-20 20:34:00,80.2,67.3,29.18,SSW,202,0.0,-999.0,65,-99.99,,,0.00,Acu-Link.com,2013-07-21 01:34:00,
2013-07-20 20:49:00,77.7,66.7,29.18,SSW,202,0.0,-999.0,69,-99.99,,,0.00,Acu-Link.com,2013-07-21 01:49:00,
2013-07-20 21:04:00,75.9,68.2,29.18,SSW,202,0.0,-999.0,77,-99.99,,,0.00,Acu-Link.com,2013-07-21 02:04:00,
2013-07-20 21:35:00,73.8,67.6,29.19,SSW,202,0.0,-999.0,81,-99.99,,,0.00,Acu-Link.com,2013-07-21 02:35:00,
2013-07-20 21:50:00,72.5,66.7,29.20,SSW,202,0.0,-999.0,82,-99.99,,,0.00,Acu-Link.com,2013-07-21 02:50:00,
2013-07-20 22:05:00,71.8,66.7,29.20,SSW,202,0.0,-999.0,84,-99.99,,,0.00,Acu-Link.com,2013-07-21 03:05:00,
2013-07-20 22:20:00,71.2,67.1,29.21,SSW,202,0.0,-999.0,87,-99.99,,,0.00,Acu-Link.com,2013-07-21 03:20:00,
2013-07-20 22:35:00,70.7,66.6,29.22,SW,225,0.0,-999.0,87,-99.99,,,0.00,Acu-Link.com,2013-07-21 03:35:00,
2013-07-20 22:50:00,70.0,65.3,29.22,SW,225,0.0,-999.0,85,-99.99,,,0.00,Acu-Link.com,2013-07-21 03:50:00,
2013-07-20 23:05:00,69.4,65.0,29.22,SSW,202,0.0,-999.0,86,-99.99,,,0.00,Acu-Link.com,2013-07-21 04:05:00,
2013-07-20 23:20:00,68.7,68.1,29.22,SW,225,0.0,-999.0,98,-99.99,,,0.00,Acu-Link.com,2013-07-21 04:20:00,
2013-07-20 23:36:00,68.9,68.3,29.22,SW,225,0.0,-999.0,98,-99.99,,,0.00,Acu-Link.com,2013-07-21 04:36:00,
2013-07-20 23:51:00,68.4,67.8,29.21,SSW,202,0.0,-999.0,98,-99.99,,,0.00,Acu-Link.com,2013-07-21 04:51:00,